Voltar ao catálogo

DMSP 5D-2 F11 DEB

AtivoPO
NORAD 28334·DEBRIS·🇺🇸 United States

Lançado Nov 28, 1991 de Vandenberg Space Force Base

Loading…

Próximas Passagens (próximas 24 horas)

TLE

AtualizadoSource: Space-Track

Época: Sep 14, 2026, 16:59 UTC

1 28334U 91082AX  26257.70770010  .00005483  00000-0  12785-2 0  9999
2 28334  98.8657 347.1843 0046354 294.4335  65.2027 14.54562253157436

Acompanhe DMSP 5D-2 F11 DEB em tempo real com AllMySat

Download on the App Store